STARLINK-34691

Last updated on Mon Oct 20 2025 00:02:06 GMT+0000 (Coordinated Universal Time)

1 65691U 25212R 25292.25805925 .00130814 00000+0 23171-2 0 9997 2 65691 53.1582 281.5688 0001333 97.0452 263.0709 15.49356088 5605
UTC large
Height (km)
Speed (km/s)
/
Latitude / Longitude
Inclination (degrees)
Orbital Period (minutes)
Azimuth
Elevation
Range (km)
Doppler Factor

Next 0 passes for location: London (51.5072 / 0.1276)

Sorry there are no passes over London.